Date String (YYYY-MM-DD hh:mm:ss) UTC,Instrument flags,absolute air pressure of the measurement (hPa),sample flow rate (lpm),inlet stack bypass flow (lpm),air temperature of the measurement (°C),ambient temperature measured by the external sensor (°C),aerosol sample conditioner tube jacket temperature (°C),OPC LED temperature (°C),internal box temperature (°C),relative humidity of the measurement (%),span deviation,mass concentration of particles derived from Lorenz-Mie calculation of OPC scattering (μg/m³),mass concentration of particles derived from Lorenz-Mie calculation of OPC scattering (μg/m³),mass concentration of particles derived from Lorenz-Mie calculation of OPC scattering (μg/m³)
DateTimeUTC,F1_M11,P_M11,Q1_M11,Q2_M11,T1_M11,T2_M11,T3_M11,T4_M11,T5_M11,U1_M11,ZSPAN_M11,X0_M11,X2_M11,X1_M11
2023-07-23 03:00:00,SystemResetWarning,0834.7,4.99,000.00,028.9,027.3,000.0,037.3,030.6,27.9,0000.0,0010.11,0006.84,0006.38
2023-07-23 03:01:00,SystemResetWarning,0834.7,4.99,000.00,028.9,027.6,000.0,037.3,030.7,28.7,0000.0,0009.95,0006.81,0006.38
2023-07-23 03:02:00,SystemResetWarning,0834.7,5.00,000.00,029.0,027.7,000.0,037.3,030.7,27.9,0000.0,0009.88,0006.82,0006.41
2023-07-23 03:03:00,SystemResetWarning,0834.7,5.00,000.00,029.0,027.8,000.0,037.3,030.8,27.6,0000.0,0009.81,0006.84,0006.43
2023-07-23 03:04:00,SystemResetWarning,0835.0,5.00,000.00,029.0,026.3,000.0,037.2,030.6,27.8,0000.0,0009.58,0006.85,0006.45
2023-07-23 03:05:00,SystemResetWarning,0834.6,5.01,000.00,029.0,025.4,000.0,037.2,030.4,27.8,0000.0,0009.57,0006.86,0006.47
2023-07-23 03:06:00,SystemResetWarning,0835.0,5.01,000.00,028.9,025.4,000.0,037.1,030.2,27.7,0000.0,0009.51,0006.86,0006.49
2023-07-23 03:07:00,SystemResetWarning,0835.1,5.00,000.00,028.8,025.7,000.0,037.2,030.2,27.9,0000.0,0009.63,0006.87,0006.50
2023-07-23 03:08:00,SystemResetWarning,0835.2,5.00,000.00,028.8,026.1,000.0,037.2,030.3,27.8,0000.0,0009.55,0006.86,0006.51
2023-07-23 03:09:00,SystemResetWarning,0835.2,5.00,000.00,028.8,026.5,000.0,037.2,030.4,27.8,0000.0,0009.52,0006.85,0006.52
2023-07-23 03:10:00,SystemResetWarning,0834.9,4.99,000.00,028.9,026.8,000.0,037.3,030.4,27.8,0000.0,0009.41,0006.83,0006.53
2023-07-23 03:11:00,SystemResetWarning,0834.7,5.00,000.00,028.9,027.1,000.0,037.3,030.5,27.7,0000.0,0009.44,0006.85,0006.54
2023-07-23 03:12:00,SystemResetWarning,0834.7,5.00,000.00,028.9,027.4,000.0,037.3,030.6,27.6,0000.0,0009.61,0006.92,0006.56
2023-07-23 03:13:00,SystemResetWarning,0834.7,5.01,000.00,029.0,027.6,000.0,037.3,030.7,27.3,0000.0,0010.29,0006.94,0006.58
2023-07-23 03:14:00,SystemResetWarning,0834.7,5.00,000.00,029.0,027.8,000.0,037.4,030.7,27.6,0000.0,0010.47,0006.96,0006.60
2023-07-23 03:15:00,SystemResetWarning,0834.7,5.00,000.00,029.1,027.9,000.0,037.4,030.8,27.6,0001.4,0010.51,0006.97,0006.60
2023-07-23 03:16:00,SystemResetWarning,0834.8,4.99,000.00,029.1,027.7,000.0,037.4,030.8,27.5,0001.6,0011.20,0006.99,0006.62
2023-07-23 03:17:00,SystemResetWarning,0834.8,5.00,000.00,029.1,026.0,000.0,037.3,030.7,27.5,0001.9,0011.30,0006.99,0006.62
2023-07-23 03:18:00,SystemResetWarning,0834.7,5.01,000.00,029.0,025.3,000.0,037.2,030.5,27.4,0000.0,0011.33,0007.00,0006.62
2023-07-23 03:19:00,SystemResetWarning,0834.7,5.00,000.00,028.9,025.4,000.0,037.2,030.2,27.5,0000.0,0011.43,0007.02,0006.62
2023-07-23 03:20:00,SystemResetWarning,0834.9,4.99,000.00,028.9,025.8,000.0,037.2,030.3,27.5,0000.0,0011.49,0007.04,0006.63
2023-07-23 03:21:00,SystemResetWarning,0835.3,5.01,000.00,028.9,026.2,000.0,037.3,030.3,27.5,0000.6,0011.62,0007.11,0006.64
2023-07-23 03:22:00,SystemResetWarning,0835.3,5.00,000.00,028.9,026.6,000.0,037.3,030.4,27.4,0001.0,0011.55,0007.11,0006.64
2023-07-23 03:23:00,SystemResetWarning,0835.4,5.00,000.00,028.9,026.9,000.0,037.3,030.5,27.3,0000.9,0011.54,0007.11,0006.65
2023-07-23 03:24:00,SystemResetWarning,0835.4,4.99,000.00,028.9,027.2,000.0,037.3,030.6,27.5,0001.5,0010.95,0007.11,0006.65
2023-07-23 03:25:00,SystemResetWarning,0835.4,4.99,000.00,029.0,027.4,000.0,037.4,030.7,27.5,0000.7,0010.69,0007.13,0006.65
2023-07-23 03:26:00,SystemResetWarning,0835.0,5.00,000.00,029.0,027.6,000.0,037.4,030.7,27.5,0000.0,0010.62,0007.12,0006.65
2023-07-23 03:27:00,SystemResetWarning,0834.9,5.01,000.00,029.1,027.8,000.0,037.4,030.8,27.6,0000.0,0010.22,0007.13,0006.64
2023-07-23 03:28:00,SystemResetWarning,0834.9,5.00,000.00,029.1,028.0,000.0,037.4,030.8,27.5,0000.1,0010.18,0007.14,0006.63
2023-07-23 03:29:00,SystemResetWarning,0834.9,4.99,000.00,029.1,027.5,000.0,037.4,030.8,27.4,-000.3,0010.16,0007.13,0006.63
2023-07-23 03:30:00,SystemResetWarning,0834.9,5.00,000.00,029.1,025.9,000.0,037.3,030.6,27.4,-000.8,0010.01,0007.13,0006.63
2023-07-23 03:31:00,SystemResetWarning,0834.9,5.01,000.00,029.0,025.3,000.0,037.2,030.4,27.6,-001.1,0010.02,0007.14,0006.65
2023-07-23 03:32:00,SystemResetWarning,0834.9,5.00,000.00,028.9,025.5,000.0,037.3,030.3,28.0,-001.0,0009.95,0007.10,0006.64
2023-07-23 03:33:00,SystemResetWarning,0835.0,4.99,000.00,028.9,025.9,000.0,037.3,030.3,27.8,-000.8,0010.13,0007.12,0006.63
2023-07-23 03:34:00,SystemResetWarning,0835.0,5.00,000.00,028.9,026.2,000.0,037.3,030.4,27.9,-000.5,0010.16,0007.10,0006.63
2023-07-23 03:35:00,SystemResetWarning,0835.1,5.01,000.00,028.9,026.6,000.0,037.3,030.5,27.9,-000.9,0010.11,0007.07,0006.62
2023-07-23 03:36:00,SystemResetWarning,0835.1,5.01,000.00,028.9,027.0,000.0,037.4,030.5,27.8,-000.2,0010.07,0007.04,0006.61
2023-07-23 03:37:00,SystemResetWarning,0835.1,4.99,000.00,029.0,027.2,000.0,037.4,030.6,28.0,0000.6,0010.24,0007.09,0006.63
2023-07-23 03:38:00,SystemResetWarning,0835.1,4.99,000.00,029.0,027.5,000.0,037.4,030.7,27.4,0000.8,0010.22,0007.08,0006.63
2023-07-23 03:39:00,SystemResetWarning,0835.1,5.00,000.00,029.1,027.7,000.0,037.4,030.7,27.5,0000.6,0010.03,0007.09,0006.63
2023-07-23 03:40:00,SystemResetWarning,0835.2,5.00,000.00,029.1,027.8,000.0,037.4,030.8,27.6,0000.8,0010.15,0007.11,0006.64
2023-07-23 03:41:00,SystemResetWarning,0835.2,5.00,000.00,029.1,028.0,000.0,037.5,030.9,27.2,0000.1,0010.97,0007.09,0006.63
2023-07-23 03:42:00,SystemResetWarning,0835.1,5.00,000.00,029.2,027.9,000.0,037.5,030.9,27.4,0001.1,0011.25,0007.05,0006.60
2023-07-23 03:43:00,SystemResetWarning,0835.1,5.00,000.00,029.2,026.3,000.0,037.4,030.7,27.8,0000.8,0011.28,0007.06,0006.60
2023-07-23 03:44:00,SystemResetWarning,0835.1,5.00,000.00,029.1,025.4,000.0,037.3,030.5,27.3,0000.0,0011.13,0007.01,0006.59
2023-07-23 03:45:00,SystemResetWarning,0835.0,5.01,000.00,029.0,025.4,000.0,037.3,030.3,27.5,0000.0,0011.12,0007.01,0006.60
2023-07-23 03:46:00,SystemResetWarning,0835.0,5.01,000.00,028.9,025.7,000.0,037.3,030.3,27.4,0000.0,0011.15,0007.02,0006.61
2023-07-23 03:47:00,SystemResetWarning,0835.0,4.99,000.00,028.9,026.1,000.0,037.4,030.4,27.7,0000.0,0011.16,0007.04,0006.61
2023-07-23 03:48:00,SystemResetWarning,0835.1,4.99,000.00,028.9,026.5,000.0,037.4,030.5,28.0,0000.0,0011.13,0007.03,0006.61
2023-07-23 03:49:00,SystemResetWarning,0835.1,5.01,000.00,029.0,026.9,000.0,037.4,030.5,27.5,0000.0,0011.07,0007.02,0006.62
2023-07-23 03:50:00,SystemResetWarning,0835.1,5.02,000.00,029.0,027.2,000.0,037.4,030.6,27.7,0000.4,0011.08,0007.01,0006.63
2023-07-23 03:51:00,SystemResetWarning,0835.1,5.00,000.00,029.0,027.4,000.0,037.4,030.7,27.7,0000.5,0011.13,0007.00,0006.63
2023-07-23 03:52:00,SystemResetWarning,0835.1,5.00,000.00,029.1,027.6,000.0,037.4,030.7,27.7,0000.8,0010.49,0007.01,0006.63
2023-07-23 03:53:00,SystemResetWarning,0835.1,5.00,000.00,029.1,027.8,000.0,037.5,030.8,27.7,0001.7,0009.95,0007.04,0006.64
2023-07-23 03:54:00,SystemResetWarning,0835.1,5.00,000.00,029.1,027.9,000.0,037.5,030.8,27.4,0000.9,0009.89,0007.02,0006.64
2023-07-23 03:55:00,SystemResetWarning,0835.1,5.00,000.00,029.2,028.0,000.0,037.5,030.9,27.5,0000.8,0010.32,0007.06,0006.66
2023-07-23 03:56:00,SystemResetWarning,0835.1,4.99,000.00,029.2,027.8,000.0,037.5,030.9,27.5,0000.2,0010.42,0007.09,0006.67
2023-07-23 03:57:00,SystemResetWarning,0835.1,4.98,000.00,029.2,026.1,000.0,037.4,030.7,27.0,0000.3,0010.38,0007.08,0006.67
2023-07-23 03:58:00,SystemResetWarning,0835.0,5.02,000.00,029.1,025.3,000.0,037.3,030.5,27.1,0000.6,0010.83,0007.07,0006.66
2023-07-23 03:59:00,SystemResetWarning,0835.0,5.00,000.00,029.0,025.4,000.0,037.3,030.2,27.3,0000.3,0010.88,0007.06,0006.65
